This demonstration page uses our WeatherBlox Daily Observations layout. Learn more.

Left ArrowRight Arrow

Hourly Observations for January 28, 2020

Temp ( °F °C ) Dew Point ( °F °C ) Humidity (%) Winds ( mph kmh ) Pressure ( in mb ) Visibility ( mi km ) Precip ( " mm )
12:53 am 00:53 Clear 31 -0.6 22 -5.6 69 69 SW 16 26 30.07 1018 10 16 0.00 0.00
1:53 am 01:53 Clear 31 -0.6 21 -6.1 67 67 SW 14 22 30.07 1018 10 16 0.00 0.00
2:53 am 02:53 Clear 31 -0.6 20 -6.7 64 64 SW 14 22 30.07 1018 10 16 0.00 0.00
3:53 am 03:53 Clear 28 -2.2 20 -6.7 72 72 SW 14 22 30.06 1018 10 16 0.00 0.00
4:53 am 04:53 Clear 28 -2.2 19 -7.2 69 69 SW 13 20 30.06 1018 10 16 0.00 0.00
5:53 am 05:53 Clear 30 -1.1 19 -7.2 64 64 SSW 15 24 30.05 1018 10 16 0.00 0.00
6:53 am 06:53 Clear 23 -5 17 -8.3 78 78 WSW 9 15 30.06 1018 10 16 0.00 0.00
7:53 am 07:53 Clear 22 -5.6 16 -8.9 78 78 SW 9 15 30.06 1018 10 16 0.00 0.00
8:53 am 08:53 Sunny 25 -3.9 19 -7.2 78 78 WNW 3 6 30.04 1017 10 16 0.00 0.00
9:53 am 09:53 Sunny 29 -1.7 21 -6.1 72 72 WNW 3 6 30.02 1017 10 16 0.00 0.00
10:53 am 10:53 Sunny 34 1.1 23 -5 64 64 Calm 30.00 1016 10 16 0.00 0.00
11:53 am 11:53 Mostly Cloudy 36 2.2 23 -5 59 59 W 3 6 29.97 1015 10 16 0.00 0.00
12:53 pm 12:53 Mostly Sunny 42 5.6 24 -4.4 49 49 Calm 29.94 1014 10 16 0.00 0.00
1:53 pm 13:53 Partly Cloudy 44 6.7 24 -4.4 45 45 WSW 10 17 29.92 1013 10 16 0.00 0.00
2:53 pm 14:53 Mostly Cloudy 45 7.2 24 -4.4 44 44 Calm 29.93 1013 10 16 0.00 0.00
3:53 pm 15:53 Partly Cloudy 39 3.9 26 -3.3 60 60 E 8 13 29.95 1014 10 16 0.00 0.00
4:53 pm 16:53 Sunny 35 1.7 25 -3.9 67 67 E 8 13 29.96 1015 10 16 0.00 0.00
5:53 pm 17:53 Clear 32 0 25 -3.9 75 75 Calm 29.99 1016 10 16 0.00 0.00
6:53 pm 18:53 Clear 31 -0.6 24 -4.4 76 76 NNE 3 6 30.01 1016 10 16 0.00 0.00
7:53 pm 19:53 Clear 28 -2.2 23 -5 81 81 Calm 30.04 1017 10 16 0.00 0.00
8:53 pm 20:53 Clear 24 -4.4 20 -6.7 84 84 W 3 6 30.06 1018 10 16 0.00 0.00
9:53 pm 21:53 Clear 24 -4.4 22 -5.6 91 91 W 6 9 30.07 1018 10 16 0.00 0.00
10:53 pm 22:53 Clear 22 -5.6 20 -6.7 92 92 W 7 11 30.09 1019 10 16 0.00 0.00
11:53 pm 23:53 Clear 23 -5 20 -6.7 88 88 WSW 9 15 30.10 1019 10 16 0.00 0.00

Powered by AerisWeather